Weather History for Franklin, VA

Change the Weather History Date:

Thursday, January 12, 2012

  Actual Average (KSFQ) Record (KSFQ)
Temperature  
Mean Temperature 56 °F -  
Max Temperature 62 °F 45 °F 71 °F (2005)
Min Temperature 50 °F 27 °F 4 °F (1981)
Degree Days  
Heating Degree Days 9    
Growing Degree Days 6 (Base 50)    
Moisture  
Dew Point 51 °F    
Average Humidity 82    
Maximum Humidity 100    
Minimum Humidity 63    
Precipitation  
Precipitation 0.00 in - - ()
Sea Level Pressure  
Sea Level Pressure 29.57 in    
Wind  
Wind Speed 9 mph (SW)    
Max Wind Speed 13 mph    
Max Gust Speed 23 mph    
Visibility 10 miles    
Events      
Averages and records for this station are not official NWS values.
T = Trace of Precipitation, MM = Missing Value Source: NWS Daily Summary

Daily Weather History Graph

Daily Weather History Graph

Search for Another Location

Airport:

Trip Planner

Search our weather history database for the weather conditions in past years. The results will help you decide how hot, cold, wet, or windy it might be!

Date:

Astronomy

Jan. 12, 2012 Rise Set
Actual Time 7:20 AM EST 5:11 PM EST
Civil Twilight 6:51 AM EST 5:40 PM EST
Nautical Twilight 6:19 AM EST 6:12 PM EST
Astronomical Twilight 5:48 AM EST 6:43 PM EST
Moon 9:07 PM EST (1/12) 9:09 AM EST (1/12)
Length of Visible Light 10h 48m
Length of Day
9h 51m
Waning Gibbous, 87% of the Moon is Illuminated
Jan 12
Waning Gibbous
Jan 16
Last Quarter
Jan 23
New
Jan 30
First Quarter
Feb 7
Full

Hourly Weather History & Observations

Time (EST) Temp. Dew Point Humidity Pressure Visibility Wind Dir Wind Speed Gust Speed Precip Events Conditions
12:15 AM 59.0 °F 57.2 °F 94% 29.51 in 10.0 mi South 6.9 mph - N/A   Overcast
12:35 AM 59.0 °F 57.2 °F 94% 29.50 in 10.0 mi South 6.9 mph - N/A   Overcast
12:55 AM 57.2 °F 57.2 °F 100% 29.49 in 10.0 mi South 6.9 mph - N/A   Mostly Cloudy
1:15 AM 57.2 °F 57.2 °F 100% 29.49 in 10.0 mi South 8.1 mph - N/A   Scattered Clouds
1:35 AM 57.2 °F 57.2 °F 100% 29.50 in 10.0 mi South 6.9 mph - N/A   Mostly Cloudy
1:55 AM 59.0 °F 59.0 °F 100% 29.50 in 10.0 mi SSW 9.2 mph - N/A   Mostly Cloudy
2:15 AM 59.0 °F 57.2 °F 94% 29.51 in 10.0 mi SW 9.2 mph - N/A   Scattered Clouds
2:35 AM 59.0 °F 57.2 °F 94% 29.52 in 10.0 mi SW 8.1 mph - N/A   Scattered Clouds
2:55 AM 57.2 °F 55.4 °F 94% 29.52 in 10.0 mi WSW 10.4 mph 17.3 mph N/A   Scattered Clouds
3:15 AM 57.2 °F 53.6 °F 88% 29.52 in 10.0 mi WSW 10.4 mph - N/A   Clear
3:35 AM 57.2 °F 53.6 °F 88% 29.53 in 10.0 mi WSW 11.5 mph 17.3 mph N/A   Scattered Clouds
3:55 AM 55.4 °F 53.6 °F 94% 29.54 in 10.0 mi WSW 8.1 mph - N/A   Scattered Clouds
4:15 AM 55.4 °F 51.8 °F 88% 29.53 in 10.0 mi SW 9.2 mph 23.0 mph N/A   Clear
4:35 AM 55.4 °F 51.8 °F 88% 29.54 in 10.0 mi WSW 10.4 mph 16.1 mph N/A   Clear
4:55 AM 53.6 °F 51.8 °F 94% 29.55 in 10.0 mi WSW 9.2 mph - N/A   Clear
5:15 AM 53.6 °F 50.0 °F 88% 29.56 in 10.0 mi SW 10.4 mph - N/A   Clear
5:35 AM 53.6 °F 50.0 °F 88% 29.56 in 10.0 mi WSW 6.9 mph - N/A   Clear
5:55 AM 51.8 °F 48.2 °F 88% 29.57 in 10.0 mi WSW 9.2 mph 18.4 mph N/A   Clear
6:15 AM 51.8 °F 48.2 °F 88% 29.58 in 10.0 mi WSW 9.2 mph - N/A   Clear
6:35 AM 51.8 °F 48.2 °F 88% 29.58 in 10.0 mi SW 5.8 mph 18.4 mph N/A   Clear
6:55 AM 51.8 °F 48.2 °F 88% 29.58 in 10.0 mi SW 8.1 mph - N/A   Clear
7:15 AM 50.0 °F 48.2 °F 94% 29.59 in 10.0 mi SW 6.9 mph - N/A   Clear
7:35 AM 50.0 °F 46.4 °F 87% 29.59 in 10.0 mi SW 6.9 mph - N/A   Clear
7:55 AM 50.0 °F 48.2 °F 94% 29.59 in 10.0 mi SSW 8.1 mph - N/A   Clear
8:15 AM 51.8 °F 48.2 °F 88% 29.61 in 10.0 mi SSW 6.9 mph - N/A   Clear
8:35 AM 51.8 °F 48.2 °F 88% 29.61 in 10.0 mi SW 9.2 mph - N/A   Clear
8:55 AM 51.8 °F 48.2 °F 88% 29.62 in 10.0 mi SW 8.1 mph - N/A   Clear
9:15 AM 53.6 °F 48.2 °F 82% 29.62 in 10.0 mi SW 9.2 mph - N/A   Clear
9:35 AM 53.6 °F 48.2 °F 82% 29.63 in 10.0 mi WSW 9.2 mph - N/A   Clear
9:55 AM 55.4 °F 48.2 °F 77% 29.63 in 10.0 mi SW 10.4 mph 16.1 mph N/A   Clear
10:15 AM 55.4 °F 48.2 °F 77% 29.63 in 10.0 mi SW 9.2 mph 16.1 mph N/A   Clear
10:35 AM 55.4 °F 48.2 °F 77% 29.63 in 10.0 mi SW 11.5 mph 16.1 mph N/A   Clear
10:55 AM 55.4 °F 48.2 °F 77% 29.61 in 10.0 mi SW 11.5 mph 16.1 mph N/A   Clear
11:15 AM 57.2 °F 50.0 °F 77% 29.60 in 10.0 mi WSW 9.2 mph - N/A   Clear
11:35 AM 57.2 °F 50.0 °F 77% 29.60 in 10.0 mi SW 9.2 mph - N/A   Clear
11:55 AM 59.0 °F 50.0 °F 72% 29.59 in 10.0 mi SW 8.1 mph - N/A   Clear
12:15 PM 60.8 °F 51.8 °F 72% 29.58 in 10.0 mi SW 9.2 mph - N/A   Clear
12:35 PM 60.8 °F 51.8 °F 72% 29.58 in 10.0 mi SSW 10.4 mph - N/A   Clear
12:55 PM 60.8 °F 51.8 °F 72% 29.58 in 10.0 mi WSW 10.4 mph 18.4 mph N/A   Clear
1:15 PM 62.6 °F 51.8 °F 68% 29.56 in 10.0 mi SSW 11.5 mph - N/A   Clear
1:35 PM 62.6 °F 51.8 °F 68% 29.55 in 10.0 mi South 10.4 mph 16.1 mph N/A   Clear
1:55 PM 62.6 °F 51.8 °F 68% 29.56 in 10.0 mi South 11.5 mph 16.1 mph N/A   Clear
2:15 PM 60.8 °F 51.8 °F 72% 29.57 in 10.0 mi SW 10.4 mph - N/A   Clear
2:35 PM 62.6 °F 51.8 °F 68% 29.57 in 10.0 mi SSW 9.2 mph - N/A   Scattered Clouds
2:55 PM 62.6 °F 51.8 °F 68% 29.57 in 10.0 mi SW 12.7 mph 16.1 mph N/A   Scattered Clouds
3:15 PM 62.6 °F 51.8 °F 68% 29.57 in 10.0 mi SSW 9.2 mph - N/A   Clear
3:35 PM 60.8 °F 50.0 °F 68% 29.56 in 10.0 mi South 11.5 mph - N/A   Scattered Clouds
3:55 PM 60.8 °F 48.2 °F 63% 29.56 in 10.0 mi SSW 10.4 mph 16.1 mph N/A   Clear
4:15 PM 60.8 °F 48.2 °F 63% 29.57 in 10.0 mi SW 9.2 mph 16.1 mph N/A   Clear
4:35 PM 59.0 °F 48.2 °F 67% 29.57 in 10.0 mi SSW 9.2 mph - N/A   Clear
5:15 PM 57.2 °F 48.2 °F 72% 29.58 in 10.0 mi SSW 8.1 mph - N/A   Clear
5:35 PM 55.4 °F 48.2 °F 77% 29.59 in 10.0 mi SSW 8.1 mph - N/A   Clear
6:15 PM 55.4 °F 48.2 °F 77% 29.60 in 10.0 mi SSW 8.1 mph - N/A   Clear
6:35 PM 53.6 °F 48.2 °F 82% 29.60 in 10.0 mi SSW 9.2 mph - N/A   Clear
6:55 PM 53.6 °F 48.2 °F 82% 29.60 in 10.0 mi SSW 8.1 mph - N/A   Clear
7:15 PM 53.6 °F 48.2 °F 82% 29.60 in 10.0 mi South 5.8 mph - N/A   Clear
7:35 PM 53.6 °F 48.2 °F 82% 29.59 in 10.0 mi South 6.9 mph - N/A   Clear
7:55 PM 53.6 °F 48.2 °F 82% 29.59 in 10.0 mi South 6.9 mph - N/A   Clear
8:15 PM 53.6 °F 48.2 °F 82% 29.60 in 10.0 mi SSW 8.1 mph - N/A   Clear
8:35 PM 53.6 °F 48.2 °F 82% 29.60 in 10.0 mi South 8.1 mph - N/A   Clear
8:55 PM 51.8 °F 48.2 °F 88% 29.59 in 10.0 mi South 5.8 mph - N/A   Clear
9:15 PM 53.6 °F 48.2 °F 82% 29.59 in 10.0 mi South 9.2 mph - N/A   Clear
9:55 PM 53.6 °F 48.2 °F 82% 29.58 in 10.0 mi South 6.9 mph - N/A   Scattered Clouds
10:15 PM 53.6 °F 48.2 °F 82% 29.58 in 10.0 mi South 8.1 mph - N/A   Clear
10:35 PM 51.8 °F 48.2 °F 88% 29.56 in 10.0 mi South 9.2 mph - N/A   Clear
10:55 PM 53.6 °F 48.2 °F 82% 29.55 in 10.0 mi South 10.4 mph - N/A   Clear
11:15 PM 53.6 °F 48.2 °F 82% 29.55 in 10.0 mi South 10.4 mph - N/A   Clear
11:35 PM 53.6 °F 48.2 °F 82% 29.54 in 10.0 mi South 10.4 mph 16.1 mph N/A   Clear
11:55 PM 53.6 °F 48.2 °F 82% 29.53 in 10.0 mi South 11.5 mph - N/A   Clear